Вернуться в каталог

CUPID

АктивенНаукаSSO
NORAD 49264·PAYLOAD·🇺🇸 United States

Запущен Sep 27, 2021 с Vandenberg Space Force Base

Loading…

Ближайшие Пролёты (ближайшие 24 часа)

TLE

СвежийSource: Space-Track

Эпоха: Sep 14, 2026, 09:41 UTC

1 49264U 21088E   26257.40356111  .00005797  00000-0  22040-3 0  9996
2 49264  97.3773 317.5819 0013359 107.5082 252.7618 15.27088155273792

Отслеживайте CUPID в реальном времени с AllMySat

Download on the App Store